Location: Marcé
(47.5801°N, 0.3280°W)
Time: 10:51:36
(UTC+01:00)

Vanguard 3 - Pass Details

Date: 06 December 2021
Orbit: 508 x 3260 km, 33.3° (Epoch: 17 January)

Event Time Altitude Azimuth Distance (km) Brightness Sun altitude
Exits shadow 05:07:06 29° 220° (SW) 4,752 10.6 -34.0°
Maximum altitude 05:17:19 48° 170° (S) 3,772 10.4 -32.2°
Drops below altitude 10° 05:32:30 10° 103° (ESE) 5,138 12.1 -29.7°
Sets 05:36:03 0° 98° (E) 5,833 12.7 -29.1°
